Location: Siratepeler Tepesi
(39.1042°N, 32.0781°E)
Time: 01:15:56
(UTC+00:00)

USA 238 - Pass Details

Date: 11 April 2026
Orbit: 883 x 1328 km, 63.4° (Epoch: 10 January)

Event Time Altitude Azimuth Distance (km) Brightness Sun altitude
Rises 19:35:06 0° 328° (NNW) 4,003 7.8 -32.7°
Reaches altitude 10° 19:37:45 10° 331° (NNW) 3,100 6.9 -33.0°
Enters shadow 19:45:00 68° 41° (NE) 1,345 4.1 -33.9°
